Location: Newark
(44.1039°N, 103.0983°W)
Time: 18:50:06
(UTC+00:00)

ISS - Visible Passes

Search period start: 20 January 2020 00:00
Search period end: 30 January 2020 00:00
Orbit: 415 x 421 km, 51.6° (Epoch: 21 January)

Date Brightness Start Highest point End Pass type
(mag) Time Alt. Az. Time Alt. Az. Time Alt. Az.
20 Jan -1.7 01:55:52 10° SSW 01:57:17 21° SSW 01:57:17 21° SSW visible
21 Jan -2.4 01:08:22 10° SSW 01:11:09 24° SE 01:11:36 23° ESE visible
21 Jan -0.2 02:44:26 10° WSW 02:44:33 11° WSW 02:44:33 11° WSW visible
22 Jan -1.6 00:21:20 10° S 00:23:19 15° SE 00:25:18 10° E visible
22 Jan -2.7 01:56:20 10° WSW 01:58:48 46° WSW 01:58:48 46° WSW visible
23 Jan -3.7 01:08:21 10° SW 01:11:41 64° SE 01:12:57 34° ENE visible
23 Jan -0.3 02:45:38 10° W 02:45:54 12° WNW 02:45:54 12° WNW visible
24 Jan -2.9 00:20:35 10° SSW 00:23:44 38° SE 00:26:53 10° ENE visible
24 Jan -2.4 01:57:19 10° W 01:59:59 36° NW 01:59:59 36° NW visible
25 Jan -3.3 01:09:04 10° WSW 01:12:23 54° NNW 01:14:00 26° NE visible
25 Jan -0.3 02:46:53 10° WNW 02:46:56 10° WNW 02:46:56 10° WNW visible
26 Jan -3.7 00:20:56 10° WSW 00:24:18 83° NNW 00:27:40 10° ENE visible
26 Jan -1.9 01:58:32 10° WNW 02:00:54 24° NNW 02:00:54 24° NNW visible
27 Jan -2.4 01:10:10 10° W 01:13:12 31° NNW 01:14:50 20° NNE visible
28 Jan -2.8 00:21:48 10° W 00:25:00 40° NNW 00:28:13 10° NE visible
28 Jan -1.7 01:59:41 10° NW 02:01:40 20° NNW 02:01:40 20° NNW visible
29 Jan -2.0 01:11:21 10° WNW 01:14:06 23° N 01:15:33 18° NNE visible
